Location: Canet
(43.3261°N, 5.3723°E)
Time: 18:58:31
(UTC+00:00)

CSL-04 Rocket - Pass Details

Date: 24 January 2021
Orbit: 806 x 860 km, 98.9° (Epoch: 02 March)

Event Time Altitude Azimuth Distance (km) Brightness Sun altitude
Rises 19:02:50 0° 174° (S) 3,352 6.8 -25.9°
Reaches altitude 10° 19:05:11 10° 178° (S) 2,431 6.1 -26.3°
Maximum altitude 19:10:31 62° 258° (WSW) 946 4.1 -27.3°
Drops below altitude 10° 19:15:59 10° 339° (NNW) 2,482 6.3 -28.3°
Sets 19:18:24 0° 343° (NNW) 3,429 7.1 -28.7°
